Home   Weather   Hilversum   Past weeks

Flag for Netherlands Past Weather in Hilversum, Netherlands — Yesterday and Last 2 Weeks

Now
37 °F

Overcast.


Feels Like: 37 °F
Forecast: 25 / 36 °F
Wind: 2 mph from Northeast

Location: De Bilt

Current Time: Jan 20, 2017 at 5:43:42 pm

Latest Report: Jan 20, 2017 at 5:00 pm


Visibility: 25 mi

Pressure: 30.55 "Hg

Humidity: 59%

Dew Point: 24 °F

Location of HilversumLocation

Past Weather in Hilversum — Graph

°F

Hilversum Temperature Yesterday

Maximum temperature yesterday: 37 °F (at 3:00 pm)
Minimum temperature yesterday: 22 °F (at 9:00 am)
Average temperature yesterday: 28 °F

High & Low Weather Summary for the Past Weeks

 TemperatureHumidityPressure
High50 °F (Jan 11, 12:00 pm)100% (Jan 7, 5:00 pm)30.76 "Hg (Jan 7, 5:00 pm)
Low21 °F (Jan 6, 2:00 am)41% (Jan 20, 1:00 pm)29.06 "Hg (Jan 13, 12:00 am)
Average34 °F89%30.23 "Hg
* Reported Jan 5 6:00 pm — Jan 20 4:00 pm, Hilversum, Weather by CustomWeather, © 2017

Note: Actual official high and low records may vary slightly from our data, if they occured in-between our weather recording intervals... More about our weather records

Advertising

Hilversum Weather History for the Previous 24 Hours

Scroll right to see more
 ConditionsComfort  
Time TempWeatherWind HumidityBarometerVisibility
4:00 pm
Fri, Jan 20
40 °FOvercast.2 mph49%30.55 "Hg25 mi
3:00 pm41 °FOvercast.3 mph41%30.55 "Hg25 mi
2:00 pm41 °FOvercast.3 mph43%30.56 "Hg25 mi
1:00 pm40 °FOvercast.2 mph41%30.58 "Hg22 mi
12:00 pm37 °FOvercast.2 mph44%30.59 "Hg17 mi
11:00 am35 °FPartly sunny.1 mph55%30.60 "Hg18 mi
10:00 am31 °FSunny.2 mph62%30.60 "Hg14 mi
9:00 am25 °FSunny.2 mph85%30.60 "Hg9 mi
8:00 am24 °FClear.2 mph88%30.60 "Hg8 mi
7:00 am24 °FClear.1 mph86%30.60 "Hg9 mi
6:00 am24 °FClear.2 mph91%30.60 "Hg7 mi
5:00 am25 °FClear.1 mph91%30.61 "Hg6 mi
4:00 am25 °FClear.2 mph89%30.60 "Hg6 mi
3:00 am23 °FClear.1 mph96%30.61 "Hg4 mi
2:00 am24 °FFog.2 mph93%30.61 "Hg5 mi
1:00 am24 °FClear.1 mph95%30.62 "Hg3 mi
12:00 am26 °FClear.1 mph93%30.63 "Hg5 mi
11:00 pm
Thu, Jan 19
26 °FClear.1 mph94%30.63 "Hg4 mi
10:00 pm25 °FClear.2 mph96%30.65 "Hg4 mi
9:00 pm27 °FClear.2 mph92%30.64 "Hg4 mi
8:00 pm29 °FClear.1 mph88%30.65 "Hg6 mi
7:00 pm28 °FFog.1 mph92%30.64 "Hg5 mi
6:00 pm31 °FClear.1 mph83%30.63 "Hg7 mi
5:00 pm35 °FSunny.2 mph73%30.64 "Hg7 mi
Weather by CustomWeather, © 2017

See weather overviewHow to use our weather pages